This demonstration page uses our WeatherBlox Daily Observations layout. Learn more.

Left ArrowRight Arrow

39.01783, -85.05884

Hourly Observations for August 22, 2021

Temp ( °F °C ) Dew Point ( °F °C ) Humidity (%) Winds ( mph kmh ) Pressure ( in mb ) Visibility ( mi km ) Precip ( " mm )
12:52 am 00:52 Mostly Clear 71 21.7 66 18.9 84 84 Calm 29.89 1012 10 16 0.00 0.00
1:52 am 01:52 Mostly Clear 72 22.2 66 18.9 82 82 Calm 29.90 1012 10 16 0.00 0.00
2:52 am 02:52 Clear 73 22.8 66 18.9 79 79 Calm 29.90 1012 10 16 0.00 0.00
3:52 am 03:52 Clear 73 22.8 65 18.3 76 76 Calm 29.91 1013 10 16 0.00 0.00
4:52 am 04:52 Clear 71 21.7 65 18.3 81 81 Calm 29.91 1013 10 16 0.00 0.00
5:52 am 05:52 Clear 70 21.1 65 18.3 84 84 Calm 29.91 1013 10 16 0.00 0.00
6:52 am 06:52 Clear 71 21.7 66 18.9 84 84 Calm 29.92 1013 9 14 0.00 0.00
7:52 am 07:52 Sunny 72 22.2 67 19.4 84 84 Calm 29.94 1014 8 13 0.00 0.00
8:52 am 08:52 Sunny 78 25.6 68 20 71 71 N 3 6 29.95 1014 8 13 0.00 0.00
9:52 am 09:52 Sunny 82 27.8 67 19.4 60 60 NNE 3 6 29.96 1015 10 16 0.00 0.00
10:52 am 10:52 Sunny 85 29.4 66 18.9 53 53 Calm 29.96 1015 10 16 0.00 0.00
11:52 am 11:52 Partly Cloudy 87 30.6 66 18.9 50 50 VRB 3 6 29.97 1015 10 16 0.00 0.00
12:52 pm 12:52 Partly Cloudy 88 31.1 65 18.3 46 46 VRB 5 7 29.95 1014 10 16 0.00 0.00
1:52 pm 13:52 Partly Cloudy 89 31.7 66 18.9 47 47 N 7 11 29.94 1014 10 16 0.00 0.00
2:52 pm 14:52 Partly Cloudy 89 31.7 66 18.9 47 47 W 8 13 29.93 1014 10 16 0.00 0.00
3:52 pm 15:52 Mostly Cloudy 89 31.7 65 18.3 45 45 NNW 8 13 29.93 1013 10 16 0.00 0.00
4:52 pm 16:52 Partly Cloudy 91 32.8 62 16.7 38 38 N 8 13 29.92 1013 10 16 0.00 0.00
5:52 pm 17:52 Partly Cloudy 90 32.2 65 18.3 44 44 WNW 12 19 29.92 1013 10 16 0.00 0.00
6:52 pm 18:52 Partly Cloudy 88 31.1 64 17.8 45 45 NW 8 13 29.91 1013 10 16 0.00 0.00
7:52 pm 19:52 Mostly Sunny 87 30.6 64 17.8 46 46 NW 5 7 29.91 1013 10 16 0.00 0.00
8:52 pm 20:52 Mostly Clear 81 27.2 66 18.9 61 61 WNW 3 6 29.92 1013 10 16 0.00 0.00
9:52 pm 21:52 Clear 80 26.7 67 19.4 64 64 Calm 29.93 1014 10 16 0.00 0.00
10:52 pm 22:52 Clear 78 25.6 66 18.9 67 67 Calm 29.93 1014 10 16 0.00 0.00
11:52 pm 23:52 Clear 75 23.9 67 19.4 76 76 W 6 9 29.94 1014 10 16 0.00 0.00

Powered by AerisWeather